Location: Unspecified
(49.2170°N, 0.0000°E)
Time: 16:19:47
(UTC+00:00)

Transit 4A - Pass Details

Date: 23 June 2019
Orbit: 863 x 981 km, 66.8° (Epoch: 22 August)

Event Time Altitude Azimuth Distance (km) Brightness Sun altitude
Rises 12:47:35 0° 308° (NW) 3,688 11.0 62.7°
Reaches altitude 10° 12:51:17 10° 329° (NNW) 2,744 10.3 62.5°
Maximum altitude 12:55:13 16° 7° (N) 2,301 9.9 62.2°
Drops below altitude 10° 12:59:08 10° 45° (NE) 2,733 10.2 61.9°
Sets 13:02:49 0° 66° (ENE) 3,667 10.8 61.6°
